Location: Unspecified
(0.0000°N, 0.0000°E)
Time: 04:18:04
(UTC+00:00)

Tiros 1 - All Passes

Search period start: 02 August 2015 00:00
Search period end: 12 August 2015 00:00
Orbit: 632 x 666 km, 48.4° (Epoch: 01 August)

Date Brightness Start Highest point End Pass type
(mag) Time Alt. Az. Time Alt. Az. Time Alt. Az.
02 Aug - 06:57:53 10° S 07:01:12 19° SE 07:04:40 10° E daylight
02 Aug - 08:38:59 10° WSW 08:43:24 35° NW 08:47:44 10° NNE daylight
02 Aug - 19:10:24 10° NNW 19:14:29 32° NE 19:18:37 10° ESE visible
02 Aug - 20:53:19 10° W 20:56:38 19° SW 20:59:50 10° S visible
03 Aug - 07:23:02 10° SSW 07:27:47 61° SE 07:32:32 10° NE daylight
03 Aug - 09:08:39 10° WNW 09:10:05 11° NW 09:11:12 10° NW daylight
03 Aug - 19:36:24 10° NW 19:40:59 72° SW 19:45:35 10° SSE visible
04 Aug - 06:09:02 10° S 06:12:05 17° SE 06:15:19 10° E daylight
04 Aug - 07:49:47 10° WSW 07:54:17 39° NW 07:58:45 10° NNE daylight
04 Aug - 18:21:27 10° N 18:25:24 29° NE 18:29:26 10° ESE visible
04 Aug - 20:04:01 10° W 20:07:33 21° SW 20:10:57 10° S visible
05 Aug - 06:34:00 10° SSW 06:38:42 55° SE 06:43:25 10° NE daylight
05 Aug - 08:18:55 10° WNW 08:20:58 12° NW 08:22:46 10° NNW daylight
05 Aug - 18:47:18 10° NW 18:51:55 80° SW 18:56:32 10° SE visible
06 Aug - 05:20:13 10° SSE 05:22:58 16° SE 05:25:55 10° E visible
06 Aug - 07:00:37 10° WSW 07:05:12 43° NW 07:09:44 10° NNE daylight
06 Aug - 17:32:30 10° N 17:36:19 26° NE 17:40:13 10° ESE daylight
06 Aug - 19:14:45 10° WNW 19:18:28 23° SW 19:22:03 10° S visible
07 Aug - 05:44:57 10° SSW 05:49:36 49° SE 05:54:16 10° NE daylight
07 Aug - 07:29:20 10° W 07:31:51 14° NW 07:34:06 10° NNW daylight
07 Aug - 17:58:13 10° NW 18:02:50 89° WSW 18:07:28 10° SE daylight
08 Aug - 04:31:28 10° SSE 04:33:51 14° SE 04:36:28 10° E visible
08 Aug - 06:11:28 10° SW 06:16:05 48° NW 06:20:42 10° NNE daylight
08 Aug - 16:43:34 10° N 16:47:14 24° NE 16:50:59 10° ESE daylight
08 Aug - 18:25:31 10° WNW 18:29:22 25° SW 18:33:08 10° S visible
09 Aug - 04:55:56 10° SSW 05:00:30 44° SE 05:05:05 10° ENE visible
09 Aug - 06:39:53 10° W 06:42:43 15° NW 06:45:21 10° NNW daylight
09 Aug - 17:09:08 10° NW 17:13:46 83° NE 17:18:24 10° SE daylight
10 Aug - 03:42:48 10° SSE 03:44:43 13° SE 03:46:56 10° ESE visible
10 Aug - 05:22:18 10° SW 05:26:59 53° NW 05:31:40 10° NNE visible
10 Aug - 15:54:39 10° N 15:58:08 21° NE 16:01:44 10° E daylight
10 Aug - 17:36:16 10° WNW 17:40:17 28° SW 17:44:12 10° S daylight
11 Aug - 04:06:56 10° SSW 04:11:24 40° SE 04:15:54 10° ENE visible
11 Aug - 05:50:28 10° W 05:53:36 17° NW 05:56:32 10° N daylight
11 Aug - 16:20:04 10° NNW 16:24:41 74° NE 16:29:18 10° SE daylight
